Location: D�derode
(51.8092°N, 10.1065°E)
Time: 06:19:54
(UTC+00:00)

Cosmos 2056 Rocket - Pass Details

Date: 01 December 2020
Orbit: 741 x 801 km, 74.0° (Epoch: 23 January)

Event Time Altitude Azimuth Distance (km) Brightness Sun altitude
Rises 18:02:02 0° 335° (NNW) 3,247 7.0 -25.2°
Reaches altitude 10° 18:04:24 10° 336° (NNW) 2,326 6.2 -25.6°
Enters shadow 18:09:35 82° 37° (NE) 795 3.4 -26.4°
